Weather History for Gage, OK

Change the Weather History Date:

Sunday, April 14, 2013

  Actual Average Record
Temperature  
Mean Temperature 65 °F -  
Max Temperature 77 °F 70 °F 93 °F (2006)
Min Temperature 54 °F 43 °F 26 °F (1957)
Growing Degree Days 15 (Base 50)    
Moisture  
Dew Point 41 °F    
Average Humidity 44    
Maximum Humidity 72    
Minimum Humidity 27    
Precipitation  
Precipitation 0.00 in - - ()
Sea Level Pressure  
Sea Level Pressure 29.48 in    
Wind  
Wind Speed 24 mph (ENE)    
Max Wind Speed 34 mph    
Max Gust Speed 51 mph    
Visibility 10 miles    
Events      
Averages and records for this station are not official NWS values.
T = Trace of Precipitation, MM = Missing Value Source: NWS Daily Summary

Daily Weather History Graph

Daily Weather History Graph

Search for Another Location

Airport:

Trip Planner

Search our weather history database for the weather conditions in past years. The results will help you decide how hot, cold, wet, or windy it might be!

Date:

Astronomy

Apr. 14, 2013 Rise Set
Actual Time 7:06 AM CDT 8:12 PM CDT
Civil Twilight 6:40 AM CDT 8:39 PM CDT
Nautical Twilight 6:08 AM CDT 9:10 PM CDT
Astronomical Twilight 5:36 AM CDT 9:43 PM CDT
Moon 9:50 AM CDT (4/14) No Moon Set
Length of Visible Light 13h 58m
Length of Day
13h 05m
Waxing Crescent, 17% of the Moon is Illuminated
Apr 14
Waxing Crescent
Apr 18
First Quarter
Apr 25
Full
May 2
Last Quarter
May 9
New

Hourly Weather History & Observations

Time (CDT) Temp. Dew Point Humidity Pressure Visibility Wind Dir Wind Speed Gust Speed Precip Events Conditions
12:53 AM 61.0 °F 42.1 °F 50% 29.50 in 10.0 mi South 32.2 mph 41.4 mph N/A   Clear
1:53 AM 61.0 °F 42.1 °F 50% 29.48 in 10.0 mi South 34.5 mph 43.7 mph N/A   Clear
2:53 AM 60.1 °F 43.0 °F 53% 29.45 in 10.0 mi South 33.4 mph 50.6 mph N/A   Clear
3:53 AM 59.0 °F 43.0 °F 55% 29.42 in 10.0 mi South 28.8 mph 39.1 mph N/A   Clear
4:53 AM 59.0 °F 44.1 °F 58% 29.41 in 10.0 mi South 27.6 mph 38.0 mph N/A   Clear
5:53 AM 57.9 °F 46.0 °F 65% 29.41 in 10.0 mi South 24.2 mph 35.7 mph N/A   Clear
6:53 AM 57.0 °F 46.0 °F 67% 29.39 in 10.0 mi South 26.5 mph 38.0 mph N/A   Clear
7:53 AM 55.9 °F 46.9 °F 72% 29.42 in 10.0 mi South 18.4 mph - N/A   Clear
8:53 AM 60.1 °F 48.9 °F 67% 29.41 in 10.0 mi SSW 26.5 mph 33.4 mph N/A   Clear
9:53 AM 64.9 °F 48.9 °F 56% 29.43 in 10.0 mi SW 19.6 mph 25.3 mph N/A   Clear
10:53 AM 71.1 °F 46.0 °F 41% 29.43 in 10.0 mi West 16.1 mph 26.5 mph N/A   Clear
11:53 AM 71.1 °F 50.0 °F 47% 29.45 in 10.0 mi NW 12.7 mph - N/A   Clear
12:53 PM 72.0 °F 46.9 °F 41% 29.45 in 10.0 mi North 12.7 mph 20.7 mph N/A   Clear
1:53 PM 73.0 °F 46.0 °F 38% 29.47 in 10.0 mi NE 9.2 mph - N/A   Clear
2:53 PM 75.2 °F 44.6 °F 34% 29.54 in 10.0 mi NE 11.5 mph 17.3 mph N/A   Clear
3:53 PM 75.9 °F 41.0 °F 29% 29.48 in 10.0 mi North 11.5 mph - N/A   Clear
4:53 PM 75.0 °F 41.0 °F 29% 29.49 in 10.0 mi NNE 11.5 mph 19.6 mph N/A   Clear
5:53 PM 75.0 °F 41.0 °F 29% 29.48 in 10.0 mi NNE 13.8 mph - N/A   Clear
6:53 PM 71.1 °F 39.0 °F 31% 29.49 in 10.0 mi NNE 13.8 mph 23.0 mph N/A   Clear
7:53 PM 66.9 °F 34.0 °F 30% 29.53 in 10.0 mi NE 15.0 mph - N/A   Clear
8:53 PM 62.1 °F 28.0 °F 28% 29.58 in 10.0 mi NE 19.6 mph - N/A   Clear
9:53 PM 59.0 °F 25.0 °F 27% 29.62 in 10.0 mi NE 15.0 mph - N/A   Clear
10:53 PM 57.0 °F 26.1 °F 30% 29.64 in 10.0 mi NE 16.1 mph - N/A   Clear
11:53 PM 54.0 °F 24.1 °F 31% 29.65 in 10.0 mi NE 15.0 mph 23.0 mph N/A   Clear